Tracking 20721 objects as of 1-Jun-2020
HD Live streaming from Space Station
objects crossing your sky now

NAVSTAR 77 (USA 289)

Track NAVSTAR 77 (USA 289) now!
NAVSTAR 77 (USA 289) is classified as:


NORAD ID: 43873
Int'l Code: 2018-109A
Perigee: 20,165.8 km
Apogee: 20,213.1 km
Inclination: 55.0 °
Period: 718.0 minutes
Semi major axis: 26560 km
RCS: Unknown
Launch date: December 23, 2018
Source: United States (US)
Launch site: AIR FORCE EASTERN TEST RANGE (AFETR)
PRN: 4
aabbcc
Your satellite tracking list
Your tracking list is empty




NASA's NSSDC Master Catalog

Two Line Element Set (TLE):
1 43873U 18109A   20151.52139112 +.00000089 +00000-0 +00000-0 0  9994
2 43873 055.0057 179.4117 0008903 224.0096 290.9340 02.00562556010810
Source of the keplerian elements: AFSPC